Pineville, WV

7:02 AM EST on January 24, 2018 (GMT -0500)
Pineville

Weather History for KI16 - December, 2012

Change the Weather History Date:

Tuesday, December 4, 2012

  Actual Average (KBKW) Record (KBKW)
Temperature  
Mean Temperature 56 °F -  
Max Temperature 70 °F 46 °F 72 °F (1982)
Min Temperature 41 °F 27 °F 4 °F (1940)
Degree Days  
Heating Degree Days 10    
Growing Degree Days 6 (Base 50)    
Moisture  
Dew Point 49 °F    
Average Humidity 80    
Maximum Humidity 100    
Minimum Humidity 52    
Precipitation  
Precipitation 0.00 in - - ()
Sea Level Pressure  
Sea Level Pressure 30.25 in    
Wind  
Wind Speed - (North)    
Max Wind Speed -    
Max Gust Speed -    
Visibility 9 miles    
Events Rain    
Averages and records for this station are not official NWS values.
T = Trace of Precipitation, MM = Missing Value Source: NWS Daily Summary

Daily Weather History Graph

Daily Weather History Graph

Search for Another Location

Airport or City:

Trip Planner

Search our weather history database for the weather conditions in past years. The results will help you decide how hot, cold, wet, or windy it might be!

Date:

Astronomy

Dec. 04, 2012 Rise Set
Actual Time 7:25 AM EST 5:07 PM EST
Civil Twilight 6:56 AM EST 5:36 PM EST
Nautical Twilight 6:24 AM EST 6:09 PM EST
Astronomical Twilight 5:52 AM EST 6:40 PM EST
Moon 10:49 PM EST (12/4) 11:23 AM EST (12/4)
Length of Visible Light 10h 40m
Length of Day
9h 42m
Waning Gibbous, 69% of the Moon is Illuminated
Dec 4
Waning Gibbous
Dec 6
Last Quarter
Dec 13
New
Dec 20
First Quarter
Dec 28
Full

Hourly Weather History & Observations

Time (EST) Temp. Dew Point Humidity Pressure Visibility Wind Dir Wind Speed Gust Speed Precip Events Conditions
12:15 AM 47.5 °F 47.3 °F 99% 30.30 in 10.0 mi North - - N/A   Mostly Cloudy
12:35 AM 46.8 °F 46.6 °F 99% 30.30 in 10.0 mi North - - N/A   Scattered Clouds
12:55 AM 46.4 °F 46.4 °F 100% 30.29 in 7.0 mi North - - N/A   Clear
1:15 AM 45.7 °F 45.7 °F 100% 30.29 in 10.0 mi North - - N/A   Clear
1:35 AM 45.7 °F 45.7 °F 100% 30.30 in 7.0 mi North - - N/A   Mostly Cloudy
1:55 AM 45.0 °F 45.0 °F 100% 30.30 in 7.0 mi North - - N/A   Scattered Clouds
2:15 AM 44.6 °F 44.6 °F 100% 30.30 in 10.0 mi North - - N/A   Clear
2:35 AM 44.4 °F 44.4 °F 100% 30.30 in 10.0 mi North - - N/A   Clear
2:55 AM 43.7 °F 43.7 °F 100% 30.30 in 10.0 mi North - - N/A   Clear
3:15 AM 43.5 °F 43.5 °F 100% 30.30 in 10.0 mi North - - N/A   Clear
3:35 AM 43.3 °F 43.3 °F 100% 30.30 in 7.0 mi North - - N/A   Clear
3:55 AM 43.2 °F 43.2 °F 100% 30.30 in 3.0 mi North - - N/A   Clear
4:15 AM 42.8 °F 42.8 °F 100% 30.29 in 7.0 mi North - - N/A   Clear
4:35 AM 42.4 °F 42.4 °F 100% 30.29 in 7.0 mi North - - N/A   Clear
4:55 AM 42.1 °F 42.1 °F 100% 30.29 in 7.0 mi North - - N/A   Clear
5:15 AM 42.3 °F 42.3 °F 100% 30.29 in 5.0 mi North - - N/A   Clear
5:35 AM 41.9 °F 41.9 °F 100% 30.29 in 10.0 mi North - - N/A   Clear
5:55 AM 41.9 °F 41.9 °F 100% 30.29 in 7.0 mi North - - N/A   Clear
6:15 AM 41.9 °F 41.9 °F 100% 30.30 in 10.0 mi North - - N/A   Scattered Clouds
6:35 AM 43.0 °F 43.0 °F 100% 30.30 in 7.0 mi North - - N/A   Mostly Cloudy
6:55 AM 44.6 °F 44.6 °F 100% 30.30 in 7.0 mi North - - N/A   Mostly Cloudy
7:15 AM 44.2 °F 44.2 °F 100% 30.30 in 4.0 mi North - - N/A   Scattered Clouds
7:35 AM 43.7 °F 43.7 °F 100% 30.30 in 2.5 mi North - - N/A   Clear
7:55 AM 42.8 °F 42.8 °F 100% 30.30 in 5.0 mi North - - N/A   Clear
8:15 AM 42.8 °F 42.8 °F 100% 30.31 in 4.0 mi North - - N/A   Clear
8:35 AM 43.7 °F 43.7 °F 100% 30.31 in 5.0 mi North - - N/A   Clear
8:55 AM 46.2 °F 46.2 °F 100% 30.31 in 7.0 mi North - - N/A   Clear
9:15 AM 48.6 °F 48.6 °F 100% 30.31 in 10.0 mi North - - N/A   Scattered Clouds
9:55 AM 54.1 °F 52.9 °F 95% 30.31 in 10.0 mi North - - N/A   Scattered Clouds
10:15 AM 57.4 °F 54.5 °F 90% 30.31 in 10.0 mi North - - N/A   Scattered Clouds
10:35 AM 57.4 °F 55.0 °F 92% 30.30 in 10.0 mi North - - N/A   Scattered Clouds
10:55 AM 64.0 °F 54.1 °F 70% 30.29 in 10.0 mi North - - N/A   Mostly Cloudy
11:15 AM 66.4 °F 53.1 °F 62% 30.28 in 10.0 mi North - - N/A   Overcast
11:35 AM 68.0 °F 52.7 °F 58% 30.27 in 10.0 mi North - - N/A   Mostly Cloudy
11:55 AM 68.5 °F 52.9 °F 57% 30.26 in 10.0 mi North - - N/A   Mostly Cloudy
12:15 PM 68.7 °F 52.7 °F 57% 30.24 in 10.0 mi North - - N/A   Overcast
12:35 PM 68.7 °F 52.9 °F 57% 30.23 in 10.0 mi North - - N/A   Mostly Cloudy
12:55 PM 69.1 °F 52.7 °F 56% 30.23 in 10.0 mi North - - N/A   Overcast
1:15 PM 68.4 °F 52.3 °F 57% 30.22 in 10.0 mi North - - N/A   Overcast
1:35 PM 68.5 °F 52.2 °F 56% 30.21 in 10.0 mi North - - N/A   Overcast
1:55 PM 69.3 °F 52.3 °F 55% 30.20 in 10.0 mi North - - N/A   Overcast
2:15 PM 70.7 °F 52.3 °F 52% 30.20 in 10.0 mi North - - N/A   Overcast
2:35 PM 69.1 °F 52.3 °F 55% 30.20 in 10.0 mi North - - N/A   Overcast
2:55 PM 69.8 °F 52.7 °F 54% 30.19 in 10.0 mi North - - N/A   Overcast
3:15 PM 69.1 °F 52.7 °F 56% 30.19 in 10.0 mi North - - N/A   Scattered Clouds
3:35 PM 69.1 °F 52.9 °F 56% 30.19 in 10.0 mi North - - N/A   Scattered Clouds
4:15 PM 68.4 °F 52.3 °F 57% 30.19 in 10.0 mi North - - N/A   Mostly Cloudy
4:35 PM 68.0 °F 52.3 °F 57% 30.19 in 10.0 mi North - - N/A   Overcast
4:55 PM 67.6 °F 52.3 °F 58% 30.19 in 10.0 mi North - - N/A   Overcast
5:15 PM 65.7 °F 53.1 °F 64% 30.19 in 10.0 mi North - - N/A Rain Light Rain
5:35 PM 63.1 °F 53.4 °F 71% 30.20 in 10.0 mi North - - N/A   Overcast
5:55 PM 62.1 °F 53.1 °F 72% 30.20 in 10.0 mi North - - N/A   Overcast
6:35 PM 63.0 °F 52.9 °F 70% 30.20 in 10.0 mi North - - N/A   Overcast
6:55 PM 62.1 °F 53.1 °F 72% 30.20 in 10.0 mi North - - N/A   Overcast
7:15 PM 61.7 °F 53.1 °F 73% 30.20 in 10.0 mi North - - N/A   Overcast
7:35 PM 62.1 °F 53.1 °F 72% 30.20 in 10.0 mi North - - N/A   Overcast
7:55 PM 62.1 °F 52.9 °F 72% 30.20 in 10.0 mi North - - N/A   Overcast
8:15 PM 64.6 °F 52.2 °F 64% 30.20 in 10.0 mi North - - N/A   Overcast
8:55 PM 63.1 °F 52.5 °F 68% 30.19 in 10.0 mi North - - N/A   Overcast
9:15 PM 63.3 °F 52.9 °F 69% 30.19 in 10.0 mi North - - N/A   Overcast
9:35 PM 63.5 °F 52.5 °F 67% 30.18 in 10.0 mi North - - N/A   Overcast
9:55 PM 60.8 °F 52.7 °F 75% 30.18 in 10.0 mi North - - N/A   Overcast
10:15 PM 61.2 °F 52.7 °F 74% 30.18 in 10.0 mi North - - N/A   Overcast
10:35 PM 60.8 °F 52.7 °F 75% 30.18 in 10.0 mi North - - N/A   Overcast
10:55 PM 60.3 °F 52.2 °F 75% 30.18 in 10.0 mi North - - N/A   Overcast
11:15 PM 62.6 °F 52.2 °F 69% 30.17 in 10.0 mi North - - N/A   Overcast
11:35 PM 61.7 °F 52.5 °F 72% 30.18 in 10.0 mi North - - N/A   Overcast
11:55 PM 64.0 °F 52.3 °F 66% 30.17 in 10.0 mi North - - N/A   Overcast